DW7098 Weather Reports


time (UTC)temp
C
wind
direction
speed
KPH
gust
KPH
rain 1hr
cm
rain 24hr
cm
rain mn
cm
humidity
%
barometer
mb
20260831230046 24 137 1.6 11.3 0.00 0.00 0.00
20260831220107 24 242 3.2 11.3 0.00 0.00 0.00
20260831213046 23 153 3.2 11.3 0.00 0.00 0.00
20260831210055 23 192 3.2 9.7 0.00 0.00 0.00
20260831203037 22 173 3.2 11.3 0.00 0.00 0.00
20260831200104 22 350 1.6 11.3 0.00 0.00 0.00
20260831193023 21 99 0.0 8.0 0.00 0.00 0.00
20260831190107 21 69 3.2 12.9 0.00 0.00 0.00
20260831183028 20 63 4.8 12.9 0.00 0.00 0.00
20260831180052 19 55 4.8 14.5 0.00 0.00 0.00
20260831163050 15 86 3.2 6.4 0.00 0.00 0.00
20260831160059 13 59 3.2 4.8 0.00 0.00 0.00
20260831150107 12 273 0.0 1.6 0.00 0.00 0.00
20260831143047 11 273 0.0 0.0 0.00 0.00 0.00
20260831140055 11 273 0.0 0.0 0.00 0.00 0.00
20260831133035 11 273 0.0 0.0 0.00 0.00 0.00
20260831130104 11 273 0.0 0.0 0.00 0.00 0.00
20260831123042 11 273 0.0 1.6 0.00 0.00 0.00
20260831113037 11 273 0.0 0.0 0.00 0.00 0.00
20260831110105 11 273 0.0 0.0 0.00 0.00 0.00
20260831103041 12 273 0.0 1.6 0.00 0.00 0.00
20260831100052 12 273 0.0 0.0 0.00 0.00 0.00
20260831083045 12 273 0.0 0.0 0.00 0.00 0.00
20260831080051 13 273 0.0 0.0 0.00 0.00 0.00
20260831073036 13 273 0.0 0.0 0.00 0.00 0.00
20260831070105 13 273 0.0 0.0 0.00 0.00 0.00
20260831063044 13 273 0.0 0.0 0.00 0.00 0.00
20260831060050 14 273 0.0 0.0 0.00 0.00 0.00
20260831053029 14 273 0.0 0.0 0.00 0.00 0.00
20260831050053 15 218 0.0 1.6 0.00 0.00 0.00
20260831043052 15 218 0.0 0.0 0.00 0.00 0.00
20260831033041 16 239 0.0 1.6 0.00 0.00 0.00
20260831030052 16 225 0.0 1.6 0.00 0.00 0.00
20260831023033 17 255 0.0 3.2 0.00 0.00 0.00
20260831020105 18 230 0.0 3.2 0.00 0.00 0.00
20260831013046 18 235 0.0 4.8 0.00 0.00 0.00
20260831010055 19 209 1.6 6.4 0.00 0.00 0.00
20260831000104 20 116 0.0 11.3 0.00 0.00 0.00
20260830233044 21 215 3.2 6.4 0.00 0.00 0.00